Weather History for KBGR - November, 2013

Change the Weather History Date:

Monday, November 4, 2013

  Actual Average Record
Temperature  
Mean Temperature 31 °F 41 °F  
Max Temperature 41 °F 50 °F 72 °F (1990)
Min Temperature 21 °F 32 °F 15 °F (1939)
Degree Days  
Heating Degree Days 34 24  
Month to date heating degree days 82 94  
Since 1 July heating degree days 776 920  
Cooling Degree Days 0 0  
Month to date cooling degree days 0 0  
Year to date cooling degree days 355 318  
Moisture  
Dew Point 16 °F    
Average Humidity 57    
Maximum Humidity 81    
Minimum Humidity 33    
Precipitation  
Precipitation 0.00 in 0.14 in 1.16 in (1949)
Month to date precipitation 0.55 0.56  
Year to date precipitation 33.92 34.81  
Snow  
Snow 0.00 in 0.10 in 1.00 in (1945)
Month to date snowfall 0.0 0.1  
Since 1 July snowfall 0.0 0.2  
Since 1 September snowfall 0.0 0.2  
Snow Depth 0.00 in    
Sea Level Pressure  
Sea Level Pressure 30.62 in    
Wind  
Wind Speed 6 mph (NNW)    
Max Wind Speed 17 mph    
Max Gust Speed 24 mph    
Visibility 10 miles    
Events      
T = Trace of Precipitation, MM = Missing Value Source: NWS Daily Summary

Daily Weather History Graph

Daily Weather History Graph

Search for Another Location

Airport or City:

Trip Planner

Search our weather history database for the weather conditions in past years. The results will help you decide how hot, cold, wet, or windy it might be!

Date:

Astronomy

Nov. 04, 2013 Rise Set
Actual Time 6:17 AM EST 4:19 PM EST
Civil Twilight 5:46 AM EST 4:50 PM EST
Nautical Twilight 5:12 AM EST 5:24 PM EST
Astronomical Twilight 4:38 AM EST 5:58 PM EST
Moon 7:26 AM EST (11/4) 5:18 PM EST (11/4)
Length of Visible Light 11h 03m
Length of Day
10h 01m
New Moon, 2% of the Moon is Illuminated
Nov 4
New Moon
Nov 10
First Quarter
Nov 17
Full
Nov 25
Last Quarter
Dec 2
New

Hourly Weather History & Observations

Time (EST) Temp. Windchill Dew Point Humidity Pressure Visibility Wind Dir Wind Speed Gust Speed Precip Events Conditions
12:53 AM 25.0 °F 17.1 °F 15.1 °F 66% 30.43 in 10.0 mi NW 6.9 mph - N/A   Clear
1:53 AM 24.1 °F 17.0 °F 15.1 °F 69% 30.46 in 10.0 mi NNW 5.8 mph - N/A   Clear
2:53 AM 27.0 °F 21.6 °F 15.1 °F 61% 30.47 in 10.0 mi NW 4.6 mph - N/A   Clear
3:53 AM 27.0 °F 21.6 °F 15.1 °F 61% 30.51 in 10.0 mi WNW 4.6 mph - N/A   Clear
4:53 AM 26.1 °F 18.4 °F 15.1 °F 63% 30.54 in 10.0 mi NW 6.9 mph - N/A   Clear
5:53 AM 26.1 °F 18.4 °F 14.0 °F 60% 30.58 in 10.0 mi NW 6.9 mph - N/A   Clear
6:53 AM 26.1 °F 18.4 °F 15.1 °F 63% 30.60 in 10.0 mi NW 6.9 mph - N/A   Clear
7:53 AM 30.0 °F 22.4 °F 17.1 °F 59% 30.61 in 10.0 mi NW 8.1 mph - N/A   Clear
8:53 AM 34.0 °F 26.0 °F 18.0 °F 52% 30.62 in 10.0 mi North 10.4 mph - N/A   Clear
9:53 AM 35.1 °F 26.4 °F 16.0 °F 46% 30.63 in 10.0 mi North 12.7 mph 20.7 mph N/A   Partly Cloudy
10:53 AM 37.0 °F 28.9 °F 17.1 °F 44% 30.62 in 10.0 mi NNE 12.7 mph - N/A   Partly Cloudy
11:53 AM 39.0 °F 33.4 °F 16.0 °F 39% 30.61 in 10.0 mi North 8.1 mph 19.6 mph N/A   Clear
12:53 PM 39.9 °F 33.4 °F 14.0 °F 35% 30.62 in 10.0 mi North 10.4 mph 18.4 mph N/A   Clear
1:53 PM 39.9 °F 33.9 °F 14.0 °F 35% 30.62 in 10.0 mi North 9.2 mph - N/A   Clear
2:53 PM 39.9 °F 33.4 °F 12.9 °F 33% 30.63 in 10.0 mi NE 10.4 mph - N/A   Clear
3:53 PM 39.0 °F 34.8 °F 14.0 °F 36% 30.65 in 10.0 mi NNE 5.8 mph - N/A   Clear
4:53 PM 32.0 °F - 16.0 °F 52% 30.67 in 10.0 mi Calm Calm - N/A   Clear
5:53 PM 28.0 °F - 17.1 °F 63% 30.68 in 10.0 mi Calm Calm - N/A   Clear
6:53 PM 28.0 °F - 17.1 °F 63% 30.68 in 10.0 mi Calm Calm - N/A   Clear
7:53 PM 26.1 °F - 18.0 °F 71% 30.69 in 10.0 mi Calm Calm - N/A   Clear
8:53 PM 25.0 °F - 18.0 °F 75% 30.71 in 10.0 mi Calm Calm - N/A   Clear
9:53 PM 25.0 °F - 18.0 °F 75% 30.71 in 10.0 mi Calm Calm - N/A   Clear
10:53 PM 24.1 °F - 19.0 °F 81% 30.72 in 10.0 mi Calm Calm - N/A   Clear
11:53 PM 21.0 °F - 17.1 °F 85% 30.73 in 10.0 mi Calm Calm - N/A   Clear